Regional Weather Roundup
Issued by NWS Mt. Holly, NJ

Home | Current Version | Previous Version | Text Only | Print | Product List | Glossary On
Versions: 1 2 3 4 5 6 7 8 9 10 11 12 13 14 15 16 17 18 19 20 21 22 23 24 25 26 27 28 29 30 31 32 33 34 35 36 37 38 39 40 41 42 43 44 45 46 47 48 49 50
000
ASUS41 KPHI 200610
RWRPHI

REGIONAL WEATHER ROUNDUP
NATIONAL WEATHER SERVICE MOUNT HOLLY NJ
200 AM EDT SAT SEP 20 2014

NOTE:  "FAIR" INDICATES FEW OR NO CLOUDS BELOW 12,000 FEET WITH NO
SIGNIFICANT WEATHER AND/OR OBSTRUCTIONS TO VISIBILITY.

 * = STATION DOES NOT REPORT PRECIPITATION (E.G. RAIN, SNOW, ETC.)
        OR FOG.

NJZ015>026-200700-
SOUTHERN NEW JERSEY

CITY           SKY/WX    TMP DP  RH WIND       PRES   REMARKS
POMONA         CLEAR     62  56  80 SE8       30.30F
6HR MIN TEMP:  60; 6HR MAX TEMP:  64;

RIO GRANDE*    PTCLDY    66  55  68 E7        30.30F
MILLVILLE      CLEAR     55  53  93 SE3       30.29F
WRIGHTSTOWN    CLEAR     50  50 100 E2        30.28F
MOUNT HOLLY    CLEAR     52  50  93 E3        30.30F
TRENTON        CLEAR     53  50  89 E5        30.30F
6HR MIN TEMP:  53; 6HR MAX TEMP:  58;


$$
NJZ001>014-200700-
NORTHERN NEW JERSEY

CITY           SKY/WX    TMP DP  RH WIND       PRES   REMARKS
SUSSEX         CLEAR     48  45  89 CALM      30.33S FOG
ANDOVER*         N/A     50  48  93 CALM      30.32S
MORRISTOWN     CLOUDY    52  48  87 CALM      30.32F
NEWARK         MOCLDY    63  52  67 SE7       30.32F
TETERBORO      PTCLDY    60  48  64 SE7       30.31F
CALDWELL       MOCLDY    56  48  74 CALM      30.33F
SOMERVILLE     PTCLDY    47  45  93 NW5       30.31F FOG
ALLAIRE*       PTCLDY    61  52  72 SE7       30.31F
TOMS RIVER*    CLEAR     57  54  88 CALM      30.31F

$$
PAZ043-044-047-054-055-060>062-066>071-200700-
EASTERN PENNSYLVANIA

CITY           SKY/WX    TMP DP  RH WIND       PRES   REMARKS
PHILADELPHIA   PTCLDY    58  54  86 E5        30.31F
6HR MIN TEMP:  58; 6HR MAX TEMP:  62;

NORTH PHILA    CLEAR     58  51  78 E5        30.32S
BLUE BELL      MOCLDY    54  54 100 CALM      30.30F
DOYLESTOWN     CLOUDY    55  53  93 CALM      30.31S
QUAKERTOWN*    CLOUDY    55  52  88 CALM      30.32F
POTTSTOWN      CLOUDY    54  52  93 CALM      30.32F
LANCASTER      CLOUDY    54  52  93 SE3       30.30F FOG
COATESVILLE    PTCLDY    54  54 100 E8        30.30F FOG
READING        MOCLDY    58  52  80 S3        30.30S
6HR MIN TEMP:  57; 6HR MAX TEMP:  63;

ALLENTOWN      CLOUDY    57  51  80 CALM      30.32S
6HR MIN TEMP:  55; 6HR MAX TEMP:  61;

MOUNT POCONO   CLOUDY    52  49  89 S7        30.32S
6HR MIN TEMP:  50; 6HR MAX TEMP:  52;

HAZLETON       CLOUDY    54  52  94 SE9G21    30.33S
WILKES BARRE   CLOUDY    57  50  77 CALM      30.29S

$$
DEZALL-MDZ008-012-015-019-020-200700-
DELAWARE AND EASTERN MARYLAND

CITY           SKY/WX    TMP DP  RH WIND       PRES   REMARKS
WILMINGTON     CLEAR     60  56  86 E7        30.30F
6HR MIN TEMP:  59; 6HR MAX TEMP:  63;

DOVER          MOCLDY    67  60  79 E13       30.26F
GEORGETOWN     CLEAR     62  58  86 E7        30.28F
6HR MIN TEMP:  60; 6HR MAX TEMP:  65;

EASTON         CLEAR     60  60 100 CALM      30.32S FOG
PATUXENT       PTCLDY    68  62  81 E13       30.25F
OCEAN CITY     PTCLDY    70  60  70 SE13G23   30.27F
WALLOPS ISLAND CLEAR     70  62  76 SE10      30.27F
CAMBRIDGE      CLEAR     59  55  88 CALM      30.26F
SALISBURY      CLEAR     59  55  87 CALM      30.26F

$$
PAZ001-021-NYZ056-072-MDZ011-DCZ001-200700-
OTHER NEARBY LOCATIONS

CITY           SKY/WX    TMP DP  RH WIND       PRES   REMARKS
HARRISBURG     CLOUDY    60  55  83 E8        30.29S
STATE COLLEGE  CLOUDY    61  55  80 S5        30.25S
WILLIAMSPORT   CLOUDY    61  52  72 SE13G20   30.26R
BINGHAMTON     CLEAR     53  49  86 S13G22    30.24F
NEW YORK CITY  CLEAR     59  48  67 VRB3      30.35F
BALTIMORE      CLOUDY    63  60  90 E7        30.28F
WASHINGTON DC  MOCLDY    67  59  75 CALM      30.29S

$$



USA.gov is the U.S. government's official web portal to all federal, state and local government web resources and services.